Location: Ocean City
(38.3360°N, 75.0850°W)
Time: 16:29:49
(UTC-05:00)

deb Explorer IX - Pass Details

Date: 21 November 2019
Orbit: 545 x 1105 km, 38.8° (Epoch: 05 December)

Event Time Altitude Azimuth Distance (km) Brightness Sun altitude
Exits shadow 05:10:51 31° 247° (WSW) 1,249 ? -18.9°
Maximum altitude 05:12:26 39° 208° (SSW) 1,034 ? -18.6°
Drops below altitude 10° 05:16:46 10° 139° (SE) 2,011 ? -17.8°
Sets 05:19:03 0° 132° (SE) 2,849 ? -17.3°
